GFSSW_sfc_dewp_159.txt.gz
Dewpoint
49 49 49 49 50 50 51 51 53 53 52 52 52 54 54 54 54 46 41 44 47 55 56 47 43 41 40 35 34 24 15 15 16 18 17 17 21 31 29 52 59 63 64 65 63
49 50 49 49 49 50 49 49 50 51 53 53 52 54 54 55 48 43 47 51 55 57 46 40 39 39 37 34 32 24 17 13 17 18 18 16 14 17 34 54 60 62 64 65 62
50 50 50 49 50 50 49 49 50 49 50 51 53 53 53 52 43 38 56 57 56 53 47 40 39 38 33 34 30 27 19 18 15 16 17 17 16 18 21 41 56 60 60 56 55
50 49 49 49 49 50 50 50 49 49 48 48 50 52 52 45 34 46 53 54 56 51 44 39 38 38 37 31 28 23 23 22 18 16 15 15 17 22 20 35 57 60 61 55 52
50 50 50 50 51 51 51 50 50 49 49 49 49 50 48 41 37 40 50 48 41 51 42 37 36 37 36 33 27 24 22 21 22 20 18 16 14 18 17 28 54 60 60 58 53
49 50 50 50 50 51 52 52 51 51 50 49 49 49 46 38 39 38 37 36 34 41 41 36 38 38 35 34 31 24 22 20 18 19 18 15 15 18 18 29 35 59 60 59 58
50 50 50 50 51 52 52 53 52 52 51 50 49 45 41 38 40 39 39 38 38 36 43 41 41 39 35 33 32 30 25 18 17 17 17 16 15 18 23 34 52 59 59 58 60
50 51 51 51 52 52 52 52 52 52 50 50 48 44 37 38 39 40 39 38 38 37 35 43 43 41 40 38 32 30 23 17 14 17 17 16 13 18 23 34 50 61 63 64 61
51 51 51 51 52 52 52 52 52 52 50 49 45 41 33 40 37 37 37 35 36 36 34 38 41 40 38 36 34 29 23 16 14 17 16 16 14 18 22 28 41 54 57 60 57
51 51 51 52 52 53 52 52 50 49 48 45 43 38 35 32 40 40 37 36 35 39 39 38 40 39 38 34 31 27 22 16 14 16 15 14 16 17 23 26 34 51 51 55 57
51 51 51 52 53 53 50 46 41 43 42 36 34 32 32 38 48 43 38 36 34 38 37 36 38 35 36 34 33 27 22 16 16 16 15 14 16 17 25 26 26 51 53 55 59
50 51 51 52 52 52 49 36 34 34 33 36 37 36 34 44 41 40 42 31 33 34 35 36 34 33 32 33 32 28 22 17 14 17 17 15 16 18 25 26 29 56 56 59 61
50 50 51 51 51 49 43 36 39 38 34 35 39 36 34 40 41 40 43 33 32 33 33 36 35 33 32 31 30 25 21 20 15 16 17 16 17 18 26 27 56 58 57 57 59
50 50 50 51 48 45 38 39 41 41 33 38 36 35 35 37 39 41 43 40 37 35 33 37 38 31 30 27 25 21 22 20 18 17 15 15 15 18 23 27 51 57 58 58 59
49 50 50 49 45 44 40 40 43 42 23 37 39 36 37 38 39 41 46 43 35 37 38 35 29 29 27 26 25 23 22 19 20 23 18 17 18 18 20 22 40 51 56 54 57
49 50 50 46 47 45 43 43 42 36 25 37 37 37 36 38 39 41 42 42 41 37 37 31 28 29 28 27 26 26 19 26 25 23 21 20 20 19 22 20 45 50 54 53 56
49 50 48 43 43 42 45 45 35 30 33 35 35 39 36 35 36 39 38 36 34 30 28 29 26 28 31 27 28 26 32 29 22 25 26 27 24 23 24 24 45 50 50 51 53
48 49 48 44 44 43 47 42 30 33 33 37 37 38 36 34 33 38 35 33 34 33 28 23 23 28 29 29 23 20 32 31 25 25 22 27 25 27 28 27 43 50 50 51 53
47 46 46 43 44 45 43 35 36 36 37 38 38 36 34 36 31 31 36 34 34 32 28 25 20 23 21 21 22 21 29 32 30 30 25 28 29 29 30 29 38 48 48 49 51
44 44 42 43 45 45 36 33 35 40 39 39 38 38 37 35 28 31 34 37 35 36 32 33 22 19 20 20 21 20 23 26 33 27 23 25 25 26 27 27 34 46 47 47 48
45 42 40 43 46 41 37 34 35 37 41 39 38 39 40 37 31 31 33 32 34 31 33 34 29 21 20 21 19 18 18 28 28 26 27 27 24 27 28 30 31 39 42 47 46
42 37 41 43 36 37 33 37 37 36 41 40 41 40 41 41 37 30 35 33 32 31 30 32 31 22 21 20 20 19 19 27 29 30 30 32 32 36 35 34 36 38 38 42 45
40 40 43 40 34 33 36 35 37 37 39 38 38 40 41 39 38 29 28 25 29 33 34 33 32 19 15 17 21 20 19 30 38 37 32 31 32 33 32 35 34 36 36 38 42
40 32 35 34 34 34 34 34 33 36 38 39 40 40 40 39 39 37 27 27 27 33 47 42 33 21 17 17 22 20 19 28 35 33 34 34 34 33 35 34 34 50 54 54 56
37 33 34 29 31 32 33 35 29 33 37 40 39 38 38 39 40 39 41 41 30 41 33 36 34 38 18 20 18 17 15 18 32 38 36 38 37 38 42 42 52 54 52 52 53
35 32 33 33 34 31 31 28 28 29 34 37 38 38 38 40 43 40 42 41 41 43 36 43 37 38 33 18 18 13 13 15 30 36 38 41 40 45 52 52 52 52 52 52 52
41 38 37 35 30 25 26 29 28 29 36 38 38 39 38 40 41 42 43 42 43 43 43 42 38 38 32 28 23 14 13 14 21 39 41 37 45 49 50 50 50 51 53 51 51

GFSSW_sfc_dewp_162.txt.gz
Dewpoint
50 50 50 49 50 50 49 49 50 48 50 50 52 53 52 53 54 48 44 45 48 53 51 47 48 45 41 36 34 22 16 16 16 17 20 20 19 25 57 55 59 61 59 61 62
50 50 50 50 50 50 51 50 49 50 48 49 50 51 53 53 46 40 46 51 52 52 46 46 40 40 38 37 35 32 24 17 17 18 18 19 20 17 51 60 61 61 63 64 61
50 50 50 50 50 50 50 50 50 49 49 49 48 49 51 52 39 39 52 53 57 51 47 47 41 38 37 35 33 30 23 18 18 16 16 16 17 20 46 55 61 59 60 59 59
49 50 50 49 50 50 50 51 51 51 51 50 48 49 50 47 19 39 49 52 50 49 44 45 40 37 37 34 33 29 29 27 23 22 18 17 17 17 18 23 60 59 60 58 57
49 49 49 50 51 51 52 52 52 52 52 51 50 49 47 40 40 38 49 45 38 46 44 41 38 37 36 37 36 31 29 25 23 23 22 22 20 19 17 23 61 59 57 56 55
49 49 50 50 51 52 52 52 53 53 52 52 50 48 44 34 38 39 39 38 38 38 39 41 37 37 37 35 34 31 27 26 23 20 20 20 20 18 17 29 58 59 57 54 53
51 50 50 51 51 51 51 52 52 52 52 51 50 45 41 35 39 39 39 39 38 37 35 40 39 37 37 34 34 33 30 28 23 23 18 21 17 17 18 25 56 59 58 57 60
51 51 50 50 51 52 52 52 52 51 51 50 49 44 35 39 39 39 38 38 40 39 37 37 37 37 40 40 38 32 28 25 23 19 19 17 15 17 18 26 50 57 58 61 63
51 51 51 51 52 52 53 53 52 51 50 49 46 41 35 39 38 40 38 36 35 36 36 36 35 41 40 38 35 34 28 23 20 17 17 17 15 18 19 20 55 57 58 59 59
51 51 51 52 52 52 53 52 50 50 49 46 44 39 37 31 43 45 39 37 35 37 41 33 35 40 38 35 31 32 26 24 18 16 17 16 16 18 20 22 53 60 53 55 57
50 51 51 52 52 52 50 44 35 37 42 37 35 34 35 38 43 41 43 37 39 38 38 38 40 38 37 37 35 33 27 22 20 16 16 16 16 16 18 22 51 55 55 57 57
50 50 51 52 52 52 48 39 34 34 33 36 37 37 37 40 38 40 43 36 36 36 38 36 35 38 37 37 35 33 32 25 21 18 16 16 16 18 19 24 43 52 56 58 61
50 50 51 51 51 48 43 37 41 39 34 35 39 37 37 40 39 40 41 34 32 33 36 33 35 36 34 32 32 31 31 26 21 21 17 17 16 18 27 53 55 56 57 60 61
50 50 51 51 46 45 41 41 43 40 32 35 38 35 38 40 38 44 45 42 37 32 33 34 36 36 33 31 31 29 31 26 23 21 15 18 14 17 23 52 55 56 58 59 61
50 50 50 50 43 43 41 43 43 41 16 35 39 40 40 38 39 42 45 43 37 37 37 36 34 33 32 30 30 29 26 24 24 20 21 19 15 17 23 48 53 55 56 58 59
49 50 50 47 46 46 44 42 42 29 20 35 37 36 38 40 39 41 42 42 42 38 38 37 37 32 28 28 28 28 26 27 26 23 21 21 17 16 19 25 51 55 56 57 57
49 50 49 45 38 44 44 45 30 27 34 33 36 36 37 37 37 38 37 36 35 31 31 30 29 30 30 29 29 27 27 24 21 23 22 26 24 23 24 32 48 51 54 55 57
48 48 48 44 43 43 45 38 27 33 34 37 37 37 36 36 34 38 37 34 34 35 31 28 23 27 30 29 26 26 30 28 20 23 20 27 25 23 29 31 46 49 52 53 55
47 44 44 45 45 43 40 31 33 36 37 37 38 37 35 36 34 35 35 34 33 34 30 28 23 28 29 30 29 28 28 31 29 30 22 25 28 29 30 30 48 49 50 51 53
43 43 43 41 43 41 34 33 34 39 39 40 36 39 35 36 33 30 33 36 34 35 33 30 29 26 27 28 28 25 30 27 33 24 22 24 25 23 26 27 37 49 49 49 52
42 40 41 39 41 37 31 32 34 38 42 40 38 38 39 39 39 31 33 35 37 34 34 35 36 21 21 20 19 19 25 29 34 35 28 27 26 29 26 27 35 47 48 49 51
40 33 39 39 31 34 32 34 37 38 41 40 41 40 40 39 39 38 34 36 36 33 32 35 30 22 19 21 21 20 25 28 31 31 31 33 31 35 33 29 40 45 47 48 50
38 38 39 37 29 29 32 33 37 38 39 39 38 39 41 38 39 38 38 36 35 32 32 32 31 17 16 15 21 18 19 29 34 36 31 33 31 38 45 43 42 42 44 47 51
39 30 32 32 32 32 30 32 34 38 38 39 40 38 37 36 41 41 39 40 41 35 47 39 32 24 20 17 21 19 20 34 32 30 32 32 37 40 49 50 52 53 52 54 53
34 28 30 26 29 31 31 32 27 28 36 39 37 37 37 37 38 39 39 40 42 45 42 32 33 37 35 21 19 17 18 32 34 35 30 34 37 46 50 50 51 52 53 53 54
35 32 34 33 33 31 28 26 30 28 29 34 36 37 38 38 40 39 39 39 40 42 42 42 32 35 30 29 17 16 18 21 35 36 37 41 43 50 52 52 51 51 52 52 52
40 38 35 34 32 27 27 28 31 31 32 35 37 37 38 40 40 39 40 39 41 40 41 41 37 34 29 35 28 19 17 16 33 35 38 36 44 50 49 49 49 50 50 50 50

GFSSW_sfc_dewp_165.txt.gz
Dewpoint
50 50 50 51 51 51 51 50 50 49 48 48 48 49 50 52 53 46 41 42 49 52 53 46 47 45 42 39 34 20 17 17 16 21 22 22 19 21 54 56 62 57 58 62 62
49 50 50 50 51 51 51 51 51 50 50 49 47 48 48 50 48 42 45 48 51 53 47 46 43 40 39 39 35 27 19 14 16 19 18 18 19 18 41 59 60 60 62 62 61
49 49 50 50 51 51 51 51 51 52 51 51 50 48 49 49 39 33 50 52 51 47 48 46 46 39 37 36 36 32 25 17 17 17 16 16 17 17 33 57 60 57 59 61 60
49 49 50 50 51 52 52 52 52 52 52 52 51 49 49 46 17 32 49 51 49 41 46 45 44 39 36 35 34 31 30 26 21 23 21 19 19 19 18 17 55 60 59 61 60
50 50 50 50 51 52 52 52 52 52 52 52 51 51 45 38 38 41 47 43 39 38 45 43 42 37 36 37 37 35 32 29 28 26 24 23 21 21 20 21 22 55 59 60 59
49 50 50 51 51 52 52 53 52 52 52 53 52 49 41 32 37 38 37 39 38 37 37 38 40 38 36 36 35 33 32 32 30 26 22 21 21 21 21 22 44 59 59 60 58
49 49 50 50 51 51 51 53 53 52 51 50 50 46 41 34 36 39 38 37 36 35 34 34 41 36 36 35 35 35 32 31 29 26 24 19 17 18 20 23 26 58 59 60 63
50 49 50 50 51 51 53 53 53 52 49 49 49 44 36 38 40 38 38 38 38 38 38 37 36 38 36 39 39 35 30 27 28 25 23 19 17 19 20 20 30 58 58 59 63
51 51 50 51 51 52 52 53 52 51 49 49 45 40 35 40 38 39 38 37 37 37 37 36 36 36 40 36 36 35 28 26 25 23 18 18 17 18 19 23 37 52 58 59 62
51 50 51 51 51 52 52 52 51 49 49 47 45 40 37 33 40 44 42 37 36 36 40 39 34 38 39 36 32 32 30 24 24 17 17 16 16 19 19 19 45 56 57 59 60
50 50 51 51 51 52 50 43 34 36 42 36 35 36 35 37 42 41 41 37 41 39 35 36 35 32 38 38 36 35 28 24 20 19 15 16 16 17 18 20 47 57 56 57 59
50 50 51 52 51 52 49 38 35 38 35 37 37 37 37 39 37 41 40 36 38 34 39 37 34 38 39 38 37 36 33 30 24 22 16 18 16 17 17 21 51 58 53 55 59
50 50 51 51 51 48 43 40 39 39 34 35 36 38 37 39 38 40 40 35 34 34 37 35 38 39 38 37 35 35 32 31 23 23 21 17 16 18 41 54 50 55 55 56 57
50 50 51 51 45 44 44 42 42 40 31 32 37 36 38 42 39 44 46 41 36 32 36 35 36 37 37 33 33 31 32 32 25 21 16 18 12 17 26 51 53 55 56 57 60
49 50 51 49 41 42 42 42 42 38 15 32 37 40 42 40 39 41 45 43 36 35 36 31 35 35 34 34 32 30 31 29 24 21 20 19 15 16 41 46 51 54 56 58 60
49 50 50 47 45 45 44 43 41 27 19 33 37 36 36 40 39 40 41 43 43 39 37 36 38 36 29 30 31 30 27 27 25 22 18 19 17 18 21 32 49 54 56 58 59
50 50 48 44 38 44 46 42 29 26 32 33 35 36 37 37 38 39 37 35 34 30 30 31 32 32 29 29 28 28 24 23 19 22 20 23 21 20 24 34 48 54 56 57 58
48 48 48 45 43 43 44 34 26 32 35 37 37 37 37 36 35 37 36 33 35 35 32 28 23 28 29 28 26 27 27 25 18 21 20 27 22 21 28 30 45 54 56 57 57
47 43 43 44 46 43 37 28 29 33 37 37 37 36 35 38 36 35 35 34 33 35 30 28 27 28 29 30 28 30 25 29 28 28 21 24 25 27 30 36 46 51 52 54 55
42 43 42 42 44 39 33 32 32 38 39 39 35 38 36 37 36 32 31 34 33 35 33 31 29 27 28 29 29 27 31 26 30 23 20 23 24 21 26 27 45 48 50 52 54
41 37 39 39 40 35 30 31 33 37 41 39 37 37 37 39 38 36 31 35 37 38 34 33 34 24 27 25 21 22 26 32 33 32 25 25 24 35 31 26 29 47 49 51 52
38 28 37 35 29 32 29 32 37 36 41 40 41 40 39 38 37 38 35 36 38 39 34 38 33 26 18 21 21 25 26 31 28 29 30 30 28 37 47 46 30 31 47 49 51
37 37 41 35 25 28 31 32 34 36 37 39 38 39 39 37 37 38 39 40 41 39 37 39 35 19 18 17 24 20 26 29 32 33 29 27 27 39 50 50 47 31 45 49 51
34 27 31 31 32 30 30 30 30 32 37 39 39 38 36 35 40 38 39 40 41 42 48 41 36 27 21 20 27 22 25 31 31 30 31 33 35 38 47 47 50 48 50 49 51
34 30 32 27 30 32 31 30 27 30 30 38 34 36 36 34 33 37 39 38 41 44 41 40 34 39 33 32 27 24 20 32 29 30 31 33 36 47 49 50 50 53 54 55 56
35 33 35 33 33 31 28 26 29 31 30 32 35 37 36 35 37 37 37 36 38 42 40 43 36 38 32 33 19 16 17 29 31 36 38 43 43 50 51 50 50 50 52 53 53
38 38 35 33 32 29 29 31 31 31 30 32 38 37 36 38 38 36 37 37 37 37 38 40 38 35 27 34 24 17 18 25 34 35 37 37 45 49 47 47 45 49 49 51 51

GFSSW_sfc_dewp_168.txt.gz
Dewpoint
50 50 49 50 51 52 52 52 51 51 52 51 50 48 48 48 50 47 43 43 46 50 51 49 46 46 42 40 35 21 17 16 17 24 25 23 22 23 38 51 61 56 60 63 63
49 49 49 51 52 52 52 52 52 52 51 52 52 51 48 49 46 44 47 48 50 50 48 46 43 41 39 39 36 21 17 14 16 23 21 19 19 19 35 58 58 59 61 62 65
50 50 51 50 51 52 52 52 52 51 51 52 52 52 49 48 39 33 49 52 50 46 50 47 46 42 38 37 36 32 26 16 17 18 17 16 16 18 36 50 58 57 59 61 64
49 50 50 51 51 52 52 52 52 52 51 52 52 52 50 45 8 29 46 46 46 44 48 46 44 39 36 36 36 34 31 26 18 21 20 18 19 21 18 20 34 50 59 60 61
50 50 50 50 51 52 52 52 53 52 52 52 52 52 44 35 36 39 45 41 39 38 45 44 41 38 34 37 37 35 34 30 29 28 27 24 22 21 21 22 23 22 50 60 60
50 50 50 50 50 51 51 52 53 52 52 52 52 48 39 30 34 37 37 39 39 36 36 38 41 41 36 36 35 34 35 34 33 28 25 23 21 23 22 24 22 46 57 60 60
50 49 50 50 50 51 51 52 53 53 52 49 50 45 39 33 35 39 38 36 37 35 33 35 40 40 36 35 36 37 33 32 32 31 27 22 21 20 22 22 21 28 60 61 62
52 50 50 50 50 51 52 52 52 53 51 49 49 44 36 38 39 39 38 37 37 36 35 34 35 40 38 36 36 37 32 29 30 29 28 23 17 19 21 20 21 22 59 62 64
51 49 50 50 51 52 52 52 53 52 49 49 43 39 35 40 37 38 38 38 37 37 38 36 35 35 37 34 34 35 28 28 28 29 25 23 19 19 20 20 20 23 58 60 64
51 49 50 50 51 52 52 51 51 50 50 48 44 40 38 34 37 43 41 38 35 37 35 37 36 35 35 36 29 31 30 27 27 23 23 22 19 18 20 20 21 35 57 60 63
50 49 50 52 51 52 49 41 36 37 42 36 35 37 36 37 40 41 39 37 40 39 34 38 35 31 34 36 36 36 30 23 27 25 21 17 20 19 19 19 21 35 57 60 61
50 50 51 51 51 51 48 37 35 38 36 39 39 38 37 39 37 40 39 36 36 32 36 36 35 34 36 37 37 37 34 31 23 25 16 17 16 18 19 19 27 43 56 59 59
50 50 51 51 51 48 43 41 38 39 35 35 35 36 37 40 40 39 38 35 34 31 34 33 36 38 36 35 35 36 34 32 24 24 20 16 16 17 35 50 46 51 55 58 59
50 50 51 51 45 44 42 44 40 39 30 30 35 38 38 43 42 43 45 41 35 31 36 35 38 37 37 37 36 33 34 33 32 22 16 17 11 17 32 47 49 48 54 55 58
49 50 51 49 40 41 41 42 42 36 16 30 35 40 41 40 40 40 44 43 34 34 35 30 37 33 38 36 35 32 33 32 32 21 18 19 13 15 41 44 48 50 53 55 58
49 50 50 47 45 44 43 44 39 27 19 32 36 35 36 40 39 40 41 43 42 38 37 34 38 38 36 35 34 32 30 26 25 21 16 17 16 16 30 27 45 51 53 56 58
49 50 48 43 38 44 45 40 28 22 31 32 34 36 37 37 38 38 36 34 33 29 28 32 34 36 32 29 31 29 24 21 18 20 17 23 20 17 23 27 41 48 52 56 58
48 48 47 45 43 43 41 32 25 28 32 36 37 37 37 37 35 37 36 32 34 34 32 27 23 29 29 27 28 27 25 24 16 20 20 27 19 19 28 28 44 50 51 56 57
47 43 42 41 46 43 34 28 27 31 34 36 37 36 35 38 39 35 35 34 34 37 33 30 29 28 29 29 27 27 25 28 26 26 19 23 24 25 31 39 49 53 55 55 56
41 41 40 39 43 37 32 31 32 37 38 39 35 36 35 38 37 36 31 34 33 37 37 32 28 27 29 29 29 27 30 26 28 21 16 22 24 18 27 34 43 50 53 55 55
39 34 38 37 37 34 29 29 33 36 40 37 35 36 36 37 36 37 35 35 40 40 37 33 33 25 28 26 25 25 26 31 32 31 24 23 21 33 42 44 34 41 50 53 54
38 25 36 34 28 30 26 28 35 36 39 39 40 39 37 35 36 35 38 39 43 43 35 37 32 27 22 22 25 24 25 29 26 27 30 30 26 43 47 49 49 46 38 48 52
35 35 39 35 26 28 30 31 33 32 35 37 36 38 38 35 34 37 39 42 41 42 38 36 32 19 17 20 25 24 28 31 31 32 28 26 25 41 48 48 49 49 44 47 51
32 28 32 31 32 29 29 29 28 32 32 32 37 37 36 34 37 34 33 39 37 43 46 43 35 26 20 19 26 21 27 31 29 27 28 31 30 37 48 49 49 50 47 49 52
34 30 31 27 30 32 29 29 28 30 31 33 34 34 35 34 34 34 34 35 35 43 42 42 33 36 34 35 28 21 22 30 28 28 28 29 33 44 48 50 50 52 51 53 55
34 33 34 32 32 31 30 28 30 31 30 28 28 28 35 33 34 35 35 33 34 40 37 40 37 40 34 35 31 27 26 28 30 35 39 39 39 49 49 48 48 51 52 53 54
36 36 36 32 30 29 28 31 31 32 31 30 31 31 33 34 36 36 36 36 35 35 35 37 39 35 28 35 25 20 24 26 29 33 37 38 41 47 47 45 45 46 47 50 51

GFSSW_sfc_dewp_171.txt.gz
Dewpoint
51 51 51 51 51 52 52 52 52 52 52 51 52 52 51 48 49 44 38 39 44 50 51 47 44 40 44 40 37 24 20 12 11 13 12 17 25 27 27 30 48 54 57 61 66
50 50 51 51 51 52 52 52 52 52 51 51 52 52 51 49 43 41 45 49 50 52 47 44 40 40 38 37 37 28 25 17 14 16 16 15 19 19 29 38 46 56 61 64 67
50 50 50 50 51 51 52 52 52 52 52 51 52 53 51 48 37 41 49 52 49 46 45 45 45 42 35 37 36 34 27 25 16 15 19 16 18 19 19 37 43 45 59 64 66
51 50 51 50 51 51 52 52 52 52 52 52 52 53 51 43 4 32 48 44 44 44 46 46 43 40 35 31 35 34 33 28 19 18 19 18 21 18 19 23 51 42 54 62 64
50 50 50 50 51 51 51 51 52 52 52 52 52 52 42 33 28 34 44 40 39 44 45 43 38 39 35 36 34 34 33 33 30 23 26 26 22 23 22 21 21 24 30 57 63
50 50 50 50 51 51 51 51 51 52 52 52 51 47 39 29 33 36 37 36 36 38 44 43 39 39 37 36 35 34 34 34 31 27 27 25 21 21 18 22 22 25 46 52 60
51 50 50 50 50 51 51 51 51 52 52 49 50 44 40 31 35 38 38 35 35 34 38 40 41 38 36 35 36 35 34 33 32 31 30 27 23 20 21 23 24 25 45 59 61
52 50 50 50 50 51 51 52 51 51 52 48 50 44 37 37 39 39 38 37 37 36 34 34 38 38 37 37 35 33 33 30 28 31 31 25 14 17 20 23 21 22 40 60 62
52 50 50 50 51 51 51 51 52 52 50 50 44 40 35 40 37 37 38 39 37 37 37 35 34 38 37 34 28 34 23 25 27 29 29 28 19 20 22 23 23 23 38 60 62
52 51 50 50 51 51 51 51 51 51 49 47 44 40 38 35 37 39 41 40 36 35 33 34 37 37 36 32 19 22 27 26 23 28 27 24 24 22 21 22 23 22 39 59 62
51 51 50 50 51 51 50 44 40 40 44 38 37 37 36 37 40 40 40 37 37 38 30 33 35 33 36 31 26 28 31 24 24 24 28 25 23 24 23 22 23 23 37 58 62
51 50 51 50 51 50 49 40 38 39 36 39 40 39 39 38 41 39 39 35 35 30 30 32 33 33 34 31 31 33 34 27 25 21 28 26 23 23 23 22 23 27 49 59 62
51 50 51 51 51 49 44 42 39 40 38 37 36 35 37 39 40 40 39 35 32 30 27 28 30 35 36 30 27 31 38 31 27 23 25 24 22 21 20 23 30 33 45 58 61
50 50 51 50 47 44 41 44 41 41 34 30 32 37 38 40 42 42 43 37 35 30 31 30 33 34 35 31 26 29 38 34 33 24 19 21 11 21 21 28 35 33 52 59 61
50 50 51 49 43 40 42 42 42 40 22 30 33 38 38 38 39 39 43 42 34 33 34 28 34 35 32 31 29 29 34 32 32 29 20 18 13 16 22 26 27 34 48 57 61
49 50 50 48 47 44 43 44 43 32 21 33 33 33 36 39 39 39 40 43 41 37 36 32 37 36 35 36 34 32 32 30 28 24 16 18 13 14 21 23 25 29 43 53 58
49 49 48 44 39 44 45 42 32 28 30 32 30 34 36 37 37 37 35 33 31 30 30 32 34 38 39 35 37 33 31 27 19 17 12 22 17 19 23 26 28 34 43 53 56
48 48 48 45 44 46 44 33 25 28 28 33 32 34 37 38 36 36 35 33 33 31 31 28 25 31 34 32 29 29 29 24 15 16 14 25 15 17 28 26 32 32 39 51 57
47 42 43 38 45 45 36 27 28 29 30 33 32 31 32 37 38 37 35 32 33 34 34 30 28 30 29 29 30 28 26 28 26 27 14 19 25 27 34 35 38 40 48 50 55
43 40 36 38 46 41 33 28 31 33 34 36 30 30 29 37 33 35 35 34 39 38 37 33 28 28 28 29 29 29 30 26 31 20 10 20 22 20 31 37 44 47 46 50 55
41 36 36 38 41 34 32 27 30 31 37 35 32 30 33 31 32 32 38 41 43 40 39 35 35 26 28 27 27 28 27 30 33 33 21 20 21 38 44 47 45 43 45 50 55
41 26 37 38 28 31 27 30 34 33 32 36 36 34 34 32 30 31 36 39 41 40 39 37 35 27 25 26 28 28 28 29 26 28 30 29 28 46 48 48 49 48 48 44 53
37 35 38 41 28 28 31 30 31 30 31 32 32 33 36 31 30 32 32 39 39 39 42 42 37 23 21 24 26 26 28 31 33 35 28 22 25 41 48 49 49 50 50 48 44
34 25 33 34 34 32 31 30 29 31 31 31 32 30 29 29 31 31 35 36 34 34 43 45 38 32 22 22 25 25 28 31 29 30 29 26 26 38 44 47 50 51 52 46 45
35 32 34 26 28 33 32 30 29 30 32 32 31 29 30 30 29 32 31 31 32 41 38 41 37 37 34 34 29 23 25 30 27 27 26 26 30 43 48 49 50 51 51 48 49
33 33 35 34 34 31 31 30 30 30 30 30 30 29 31 33 32 31 33 30 31 34 35 38 37 38 33 33 33 23 23 26 26 30 31 34 34 48 49 49 48 49 51 52 53
39 39 36 31 31 29 29 30 30 32 31 31 32 32 31 32 33 32 32 33 33 34 35 36 39 37 30 32 27 24 23 22 26 29 29 30 36 49 46 47 47 47 46 46 47